This is the latest recevied weather packets stored in our database for station/object K2NV. If no packets are shown the sender has not sent any weather packets the latest 1 day(s).
| Time | Temp. | Humidity | Pressure | Rain* | Wind** | Luminosity | Snow |
|---|---|---|---|---|---|---|---|
| 1778029756 | 9.44° C | 91% | 1007.6 hPa | 1.52 mm | 0 m/s | - | - |
| 1778029458 | 9.44° C | 91% | 1007.6 hPa | 1.52 mm | 0 m/s | - | - |
| 1778029156 | 9.44° C | 91% | 1007.5 hPa | 1.78 mm | 0.45 m/s, 205° | - | - |
| 1778028855 | 9.44° C | 91% | 1007.6 hPa | 2.03 mm | 0.45 m/s, 205° | - | - |
| 1778028556 | 9.44° C | 92% | 1007.6 hPa | 2.03 mm | 0 m/s | - | - |
| 1778028255 | 9.44° C | 91% | 1007.6 hPa | 2.29 mm | 0 m/s | - | - |
| 1778027957 | 9.44° C | 92% | 1007.5 hPa | 2.54 mm | 0 m/s | - | - |
| 1778027657 | 9.44° C | 91% | 1007.5 hPa | 2.79 mm | 0.45 m/s, 205° | - | - |
| 1778027358 | 9.44° C | 91% | 1007.7 hPa | 3.05 mm | 0.45 m/s, 205° | - | - |
| 1778027057 | 9.44° C | 91% | 1007.7 hPa | 2.79 mm | 0.89 m/s, 205° | - | - |
| 1778026755 | 9.44° C | 91% | 1007.7 hPa | 3.05 mm | 0.45 m/s, 214° | - | - |
| 1778026456 | 9.44° C | 91% | 1007.5 hPa | 3.05 mm | 0.89 m/s, 191° | - | - |
| 1778026155 | 9.44° C | 91% | 1007.4 hPa | 2.79 mm | 0 m/s | - | - |
| 1778025856 | 9.44° C | 91% | 1007.3 hPa | 2.79 mm | 0.45 m/s, 227° | - | - |
| 1778025557 | 9.44° C | 91% | 1007.5 hPa | 2.54 mm | 0 m/s | - | - |
| 1778025257 | 9.44° C | 91% | 1007.3 hPa | 2.54 mm | 0 m/s | - | - |
| 1778024955 | 9.44° C | 91% | 1007.3 hPa | 2.29 mm | 0.45 m/s, 227° | - | - |
| 1778024656 | 9.44° C | 91% | 1007.2 hPa | 2.29 mm | 0.45 m/s, 227° | - | - |
| 1778024357 | 9.44° C | 91% | 1007.2 hPa | 2.03 mm | 0.45 m/s, 235° | - | - |
| 1778024055 | 9.44° C | 91% | 1006.9 hPa | 1.78 mm | 0 m/s | - | - |
| 1778023756 | 9.44° C | 90% | 1007 hPa | 1.78 mm | 0.45 m/s, 253° | - | - |
| 1778023457 | 9.44° C | 91% | 1006.8 hPa | 1.78 mm | 0 m/s | - | - |
| 1778023155 | 9.44° C | 90% | 1007 hPa | 1.78 mm | 0.89 m/s, 253° | - | - |
| 1778022856 | 9.44° C | 90% | 1006.5 hPa | 1.52 mm | 0.45 m/s, 324° | - | - |
| 1778022556 | 10° C | 90% | 1006.6 hPa | 1.78 mm | 0 m/s | - | - |
* Rain latest hour (hover to see other rain measurements)
** Current wind speed in m/s (hover to see current wind gust speed)